Temp
-17 -18 -18 -19 -19 -19 -20 -20 -20 -21 -21 -21 -21 -21 -20 -20 -19 -18 -17 -17 -16 -16 -15 -15 -15 -15 -14 -14 -14 -14 -14 -13 -13 -14 -13 -12 -12 -12 -12 -12 -12 -12 -12
-19 -19 -19 -19 -20 -21 -22 -22 -22 -22 -23 -22 -22 -22 -22 -21 -21 -21 -20 -19 -17 -17 -16 -15 -15 -15 -15 -14 -14 -14 -14 -14 -13 -14 -13 -12 -13 -12 -12 -12 -12 -12 -12
-20 -21 -21 -22 -22 -23 -23 -23 -23 -23 -24 -24 -24 -23 -24 -24 -25 -25 -23 -23 -21 -19 -17 -16 -16 -15 -15 -15 -14 -14 -14 -15 -14 -15 -14 -13 -13 -12 -12 -12 -12 -13 -13
-21 -23 -23 -23 -24 -24 -24 -24 -24 -24 -23 -24 -25 -25 -26 -26 -27 -27 -26 -25 -25 -23 -21 -19 -17 -16 -15 -16 -15 -14 -14 -15 -14 -15 -14 -13 -13 -12 -12 -13 -13 -13 -13
-23 -24 -25 -26 -25 -25 -25 -25 -25 -24 -24 -25 -25 -26 -27 -27 -27 -27 -27 -27 -27 -26 -25 -24 -21 -18 -16 -16 -16 -15 -14 -15 -14 -14 -15 -14 -14 -13 -13 -12 -13 -13 -13
-24 -25 -26 -27 -27 -27 -26 -26 -26 -26 -26 -27 -27 -27 -27 -27 -27 -28 -28 -27 -27 -27 -26 -26 -25 -23 -17 -17 -17 -15 -15 -15 -15 -15 -16 -14 -14 -13 -13 -13 -13 -13 -13
-23 -25 -26 -26 -27 -27 -27 -27 -27 -27 -27 -27 -28 -27 -28 -27 -28 -28 -27 -27 -27 -26 -26 -26 -25 -24 -22 -19 -18 -18 -15 -14 -15 -16 -16 -15 -14 -14 -14 -14 -13 -13 -14
-23 -24 -26 -26 -27 -27 -27 -27 -27 -27 -27 -28 -28 -28 -28 -28 -28 -28 -27 -27 -27 -26 -26 -25 -25 -24 -22 -20 -19 -19 -16 -16 -16 -17 -16 -15 -14 -14 -14 -14 -13 -13 -14
-24 -24 -25 -26 -26 -26 -27 -27 -27 -27 -27 -27 -28 -28 -28 -28 -28 -28 -27 -27 -26 -26 -25 -25 -25 -23 -20 -20 -20 -19 -17 -17 -17 -17 -15 -15 -15 -14 -14 -14 -14 -14 -14
-24 -25 -25 -25 -26 -26 -26 -27 -27 -27 -27 -27 -28 -28 -28 -28 -28 -28 -27 -26 -26 -25 -25 -25 -24 -23 -21 -21 -19 -20 -19 -18 -17 -16 -15 -15 -15 -14 -14 -15 -15 -14 -14
-25 -25 -25 -26 -26 -26 -26 -26 -27 -27 -27 -27 -28 -28 -28 -28 -27 -27 -26 -26 -25 -25 -24 -24 -23 -21 -21 -20 -20 -19 -18 -18 -17 -15 -15 -15 -14 -15 -15 -15 -14 -14 -14
-25 -25 -26 -26 -26 -27 -27 -26 -27 -27 -27 -27 -27 -27 -27 -27 -26 -26 -25 -24 -24 -24 -23 -23 -23 -21 -20 -20 -19 -18 -17 -16 -16 -15 -15 -15 -16 -15 -15 -15 -14 -13 -13
-25 -25 -26 -26 -27 -27 -27 -27 -26 -27 -27 -27 -27 -27 -27 -27 -25 -24 -23 -23 -22 -23 -23 -22 -21 -21 -20 -19 -18 -17 -17 -16 -16 -15 -16 -16 -15 -15 -15 -14 -13 -13 -13
-25 -26 -26 -27 -27 -27 -27 -27 -27 -27 -27 -27 -27 -26 -26 -24 -23 -23 -22 -22 -22 -21 -21 -21 -20 -20 -20 -19 -18 -18 -17 -16 -16 -16 -16 -16 -15 -14 -14 -13 -14 -14 -14
-25 -25 -26 -27 -27 -27 -27 -27 -27 -27 -26 -26 -25 -24 -24 -23 -22 -22 -21 -21 -21 -20 -20 -21 -21 -20 -19 -19 -18 -17 -17 -17 -16 -16 -16 -15 -14 -14 -13 -14 -14 -14 -16
-26 -26 -26 -27 -27 -27 -27 -27 -26 -26 -25 -24 -23 -23 -23 -22 -21 -21 -21 -21 -21 -20 -20 -20 -19 -19 -18 -18 -17 -17 -17 -17 -16 -16 -16 -14 -14 -13 -14 -14 -14 -16 -18
-26 -26 -26 -26 -26 -26 -26 -25 -24 -24 -24 -23 -22 -22 -22 -21 -21 -21 -21 -21 -21 -20 -19 -19 -19 -18 -18 -18 -17 -17 -17 -16 -16 -16 -15 -14 -14 -13 -14 -14 -16 -18 -20
-25 -26 -26 -25 -25 -24 -24 -24 -24 -23 -23 -22 -22 -22 -22 -22 -22 -22 -21 -20 -20 -19 -19 -18 -17 -18 -17 -17 -17 -17 -16 -16 -16 -15 -14 -13 -13 -14 -14 -15 -16 -17 -20
-25 -24 -24 -23 -24 -24 -24 -23 -23 -22 -22 -22 -22 -22 -22 -22 -21 -20 -20 -20 -19 -19 -17 -17 -17 -17 -17 -17 -16 -16 -16 -16 -15 -14 -14 -13 -14 -15 -14 -15 -15 -16 -18
-23 -23 -23 -23 -24 -24 -23 -22 -22 -21 -21 -21 -22 -22 -22 -20 -19 -19 -19 -19 -19 -17 -17 -17 -17 -17 -16 -16 -16 -16 -16 -15 -14 -14 -13 -13 -15 -15 -15 -15 -15 -14 -15
-23 -23 -23 -23 -23 -22 -22 -22 -21 -21 -21 -21 -21 -21 -20 -20 -19 -19 -19 -19 -18 -17 -17 -17 -17 -16 -16 -16 -16 -16 -15 -15 -14 -14 -13 -14 -15 -15 -15 -15 -14 -12 -13
-22 -23 -23 -22 -22 -22 -21 -21 -21 -21 -22 -21 -20 -20 -20 -19 -19 -19 -18 -17 -17 -17 -17 -17 -17 -16 -16 -16 -16 -15 -15 -15 -14 -14 -13 -14 -15 -15 -15 -15 -15 -14 -14
-22 -23 -22 -22 -21 -21 -20 -21 -21 -22 -21 -20 -20 -19 -19 -19 -19 -18 -17 -17 -17 -17 -17 -16 -16 -16 -16 -16 -16 -15 -15 -15 -14 -14 -14 -14 -15 -15 -15 -15 -16 -15 -15
-22 -22 -22 -22 -21 -21 -21 -21 -21 -20 -20 -19 -19 -18 -18 -18 -18 -17 -17 -17 -17 -17 -17 -16 -16 -16 -16 -16 -16 -15 -15 -15 -14 -14 -14 -14 -15 -15 -15 -15 -15 -15 -15
-22 -22 -21 -21 -21 -20 -20 -20 -19 -19 -19 -19 -18 -18 -18 -18 -18 -17 -17 -17 -17 -17 -17 -16 -16 -16 -16 -16 -16 -15 -15 -15 -14 -14 -14 -15 -15 -16 -15 -15 -15 -15 -15
-21 -21 -21 -20 -20 -20 -20 -19 -18 -19 -19 -19 -18 -18 -18 -18 -18 -17 -17 -17 -17 -17 -16 -16 -16 -16 -16 -16 -16 -15 -15 -15 -15 -15 -15 -15 -15 -14 -15 -15 -15 -15 -15
Height
5616 5605 5596 5586 5576 5570 5565 5560 5555 5551 5549 5549 5549 5551 5552 5553 5554 5555 5562 5569 5575 5583 5592 5601 5614 5623 5633 5642 5649 5658 5666 5673 5681 5689 5692 5695 5699 5703 5707 5711 5714 5717 5719
5587 5577 5568 5558 5550 5543 5537 5534 5531 5528 5526 5525 5527 5529 5529 5529 5530 5532 5533 5536 5545 5554 5563 5572 5585 5597 5610 5621 5631 5640 5649 5656 5664 5674 5679 5682 5687 5691 5694 5698 5701 5704 5706
5561 5549 5539 5530 5522 5518 5514 5510 5508 5506 5507 5505 5505 5506 5507 5508 5508 5509 5509 5512 5514 5522 5532 5543 5559 5568 5587 5599 5613 5621 5632 5640 5648 5658 5665 5669 5673 5677 5682 5685 5688 5691 5693
5534 5524 5514 5506 5498 5494 5491 5489 5487 5485 5486 5487 5487 5488 5489 5491 5491 5492 5490 5491 5492 5498 5506 5516 5530 5544 5563 5580 5591 5602 5615 5625 5633 5643 5652 5657 5661 5665 5669 5672 5675 5678 5680
5510 5500 5490 5481 5475 5470 5467 5465 5463 5463 5465 5466 5468 5470 5472 5474 5476 5475 5474 5474 5475 5480 5486 5495 5505 5520 5539 5555 5570 5584 5597 5610 5619 5629 5640 5646 5649 5653 5656 5658 5663 5664 5666
5492 5479 5469 5461 5455 5450 5447 5444 5442 5443 5444 5445 5449 5452 5455 5458 5460 5460 5459 5461 5462 5466 5473 5480 5488 5498 5518 5538 5553 5566 5580 5595 5606 5617 5628 5633 5637 5640 5643 5647 5650 5652 5654
5475 5462 5451 5441 5436 5432 5428 5427 5426 5425 5426 5429 5432 5435 5439 5444 5446 5446 5446 5448 5450 5455 5462 5468 5475 5484 5499 5526 5538 5550 5563 5580 5595 5606 5617 5622 5626 5629 5633 5635 5637 5639 5640
5462 5449 5437 5426 5419 5415 5412 5411 5410 5409 5410 5412 5417 5421 5425 5430 5433 5433 5433 5435 5439 5445 5450 5457 5463 5473 5489 5508 5524 5533 5551 5569 5585 5598 5605 5610 5616 5619 5621 5624 5625 5625 5626
5449 5437 5425 5414 5406 5401 5398 5397 5396 5394 5394 5398 5403 5409 5414 5419 5420 5421 5420 5423 5428 5434 5439 5445 5453 5463 5479 5497 5508 5527 5542 5559 5575 5587 5596 5601 5605 5608 5611 5614 5613 5614 5615
5438 5425 5413 5402 5394 5388 5384 5381 5380 5379 5382 5386 5391 5398 5404 5408 5410 5410 5410 5412 5417 5422 5426 5431 5442 5452 5469 5485 5501 5520 5537 5552 5567 5580 5587 5591 5595 5600 5602 5604 5604 5603 5599
5426 5414 5403 5392 5383 5376 5372 5369 5367 5369 5373 5377 5383 5390 5396 5399 5399 5399 5398 5400 5404 5409 5413 5420 5431 5442 5458 5478 5499 5515 5531 5546 5561 5572 5577 5583 5587 5591 5594 5594 5592 5591 5586
5414 5404 5393 5383 5374 5367 5363 5361 5360 5363 5367 5371 5378 5385 5388 5389 5388 5390 5390 5392 5394 5399 5404 5411 5423 5443 5460 5476 5494 5512 5528 5543 5554 5563 5571 5576 5580 5585 5586 5585 5581 5575 5569
5405 5395 5385 5375 5367 5359 5355 5354 5356 5358 5363 5369 5374 5379 5381 5380 5381 5384 5387 5388 5393 5397 5404 5413 5428 5446 5461 5477 5494 5510 5524 5537 5548 5557 5564 5571 5575 5577 5578 5574 5568 5561 5552
5397 5388 5379 5370 5362 5354 5350 5350 5352 5356 5363 5367 5372 5374 5375 5377 5380 5382 5387 5391 5396 5401 5407 5420 5435 5449 5461 5478 5495 5510 5522 5534 5543 5552 5561 5566 5569 5571 5569 5563 5556 5546 5535
5389 5381 5374 5367 5361 5354 5350 5351 5354 5359 5365 5368 5370 5372 5374 5376 5380 5385 5391 5397 5404 5412 5422 5433 5444 5456 5469 5483 5499 5510 5521 5531 5541 5550 5557 5561 5564 5563 5559 5553 5546 5536 5523
5383 5377 5372 5366 5363 5358 5356 5357 5359 5364 5367 5368 5372 5374 5375 5380 5385 5392 5398 5404 5412 5420 5429 5440 5450 5461 5476 5489 5499 5510 5520 5530 5540 5548 5553 5557 5558 5556 5552 5547 5541 5530 5515
5378 5374 5370 5366 5365 5364 5363 5364 5366 5370 5371 5374 5375 5376 5380 5384 5392 5398 5405 5411 5418 5425 5436 5445 5457 5471 5482 5492 5502 5513 5523 5532 5540 5546 5550 5552 5552 5549 5548 5546 5539 5529 5518
5380 5375 5370 5368 5369 5369 5371 5372 5373 5373 5375 5378 5380 5382 5387 5393 5400 5406 5411 5418 5425 5432 5442 5455 5466 5477 5488 5498 5507 5516 5524 5533 5539 5544 5547 5548 5546 5547 5549 5547 5540 5532 5525
5386 5381 5377 5377 5375 5375 5377 5378 5380 5380 5383 5385 5387 5389 5396 5400 5404 5410 5416 5424 5434 5442 5454 5465 5475 5484 5495 5503 5511 5518 5527 5534 5539 5542 5543 5543 5544 5548 5551 5548 5545 5536 5534
5393 5390 5387 5386 5385 5384 5384 5385 5386 5386 5388 5391 5394 5397 5403 5409 5413 5420 5428 5435 5444 5456 5465 5473 5482 5491 5500 5507 5514 5522 5529 5535 5539 5540 5541 5542 5545 5550 5553 5553 5550 5546 5544
5398 5396 5394 5393 5391 5391 5391 5393 5393 5393 5395 5399 5403 5405 5410 5418 5424 5432 5440 5449 5458 5467 5475 5483 5491 5498 5504 5510 5517 5524 5531 5535 5538 5541 5542 5543 5547 5552 5556 5558 5558 5557 5558
5404 5403 5401 5399 5399 5399 5400 5400 5400 5401 5405 5408 5411 5416 5422 5429 5436 5445 5454 5464 5470 5477 5485 5491 5497 5503 5508 5514 5520 5527 5533 5537 5541 5543 5545 5546 5549 5554 5559 5563 5565 5566 5567
5412 5410 5409 5408 5407 5408 5408 5407 5408 5410 5413 5418 5424 5430 5435 5442 5450 5460 5467 5473 5480 5486 5492 5497 5502 5507 5512 5518 5525 5531 5536 5541 5544 5547 5548 5549 5553 5557 5562 5567 5571 5574 5578
5418 5416 5415 5415 5415 5415 5416 5415 5417 5421 5425 5430 5437 5442 5447 5453 5462 5471 5477 5483 5488 5493 5498 5502 5507 5511 5517 5522 5529 5535 5540 5545 5549 5551 5553 5555 5556 5561 5566 5571 5576 5580 5583
5422 5422 5422 5421 5420 5421 5421 5422 5425 5430 5436 5441 5447 5452 5458 5464 5471 5479 5485 5489 5494 5498 5502 5506 5510 5515 5521 5527 5534 5540 5545 5549 5552 5555 5557 5560 5562 5566 5570 5575 5579 5584 5588
5427 5427 5426 5426 5424 5426 5429 5432 5433 5438 5444 5450 5455 5461 5467 5473 5479 5486 5490 5495 5499 5503 5507 5510 5515 5520 5525 5531 5538 5543 5548 5553 5556 5559 5563 5565 5569 5571 5574 5577 5582 5587 5592
Wind_Speed
90 91 87 85 84 83 82 81 77 72 66 61 59 60 63 68 79 91 99 104 101 103 100 98 91 83 78 73 70 68 64 59 51 50 51 51 50 48 47 47 47 47 48
93 90 89 89 86 82 73 69 65 64 62 58 54 52 54 58 63 71 81 91 102 105 102 102 97 92 86 79 73 71 68 64 56 50 51 51 50 49 49 47 48 48 48
92 89 84 78 73 68 63 62 61 61 58 59 56 51 52 55 57 61 68 70 80 94 103 105 100 98 90 87 80 76 72 69 61 51 51 51 49 48 49 48 48 48 48
85 80 76 73 71 68 66 63 59 58 58 58 56 52 49 47 50 55 59 60 66 71 82 95 103 102 95 89 83 78 73 71 66 56 51 49 48 47 47 47 48 47 47
80 74 68 65 61 59 58 58 57 56 54 55 55 51 46 45 47 48 48 48 52 55 58 67 80 98 98 93 89 77 76 75 71 60 49 47 48 46 45 46 46 47 47
69 66 62 58 55 54 51 51 53 52 50 50 51 47 48 43 42 44 43 39 43 42 42 45 49 65 93 87 70 86 83 78 73 61 46 47 46 46 45 45 45 47 48
65 62 59 57 52 49 49 48 49 49 45 45 46 44 41 40 37 40 40 39 40 38 35 36 38 43 64 60 54 68 79 76 73 58 45 45 44 45 44 43 45 47 51
63 60 56 54 49 44 41 41 40 44 44 42 42 42 39 33 32 32 39 41 38 35 34 32 33 41 44 46 64 73 76 65 65 47 45 42 42 44 43 43 45 50 51
61 59 56 52 48 41 37 41 42 43 44 40 38 39 34 31 35 33 36 41 37 36 36 35 35 50 57 56 43 60 65 62 59 48 42 39 42 42 42 44 48 50 47
60 57 54 52 48 45 39 35 38 39 38 34 34 34 31 30 31 29 35 38 39 39 40 37 41 56 66 61 47 41 41 44 44 40 39 38 39 39 43 45 44 45 47
59 55 52 49 46 41 39 34 30 30 30 29 27 27 23 23 25 31 37 37 28 29 30 32 54 59 59 54 52 41 40 42 40 39 37 37 38 40 38 39 40 41 44
54 52 48 46 41 37 32 26 24 23 25 20 19 19 20 21 28 27 17 17 23 21 19 30 63 50 47 48 42 44 42 38 39 36 35 38 34 32 33 34 35 40 46
49 46 45 42 39 34 26 23 19 19 14 16 17 13 16 24 11 6 16 16 17 21 23 52 54 45 44 45 48 44 40 39 35 36 36 28 26 27 26 27 34 39 43
45 42 41 37 36 28 18 14 11 11 14 14 10 13 16 2 4 10 12 14 17 22 48 49 47 54 51 51 41 39 38 36 36 29 23 22 21 18 20 27 29 34 42
40 35 34 30 28 22 10 2 11 13 11 9 10 5 4 6 11 16 17 19 24 28 34 46 44 45 43 39 40 39 36 32 26 22 21 17 12 13 19 18 24 32 35
34 25 26 23 19 13 4 10 12 9 6 6 14 10 15 18 21 22 21 23 26 25 28 36 43 40 41 43 40 34 30 25 22 19 16 10 6 9 7 13 20 22 24
24 19 19 17 11 6 9 10 9 8 13 19 15 18 22 22 24 28 25 17 20 28 38 37 40 45 45 38 34 29 25 22 20 18 12 6 1 3 3 9 13 13 18
18 16 15 13 16 14 14 10 9 16 19 18 16 26 25 28 25 23 22 25 35 38 40 47 47 43 37 34 28 25 23 23 20 15 10 6 6 8 7 9 12 17 20
17 19 21 20 17 14 13 13 20 19 15 15 16 27 29 20 25 29 30 35 38 42 46 44 42 38 33 28 25 24 25 23 19 14 11 9 8 16 12 14 17 32 31
21 20 17 16 15 14 14 21 19 18 18 18 27 26 26 36 36 34 39 41 43 43 46 38 35 32 27 23 25 26 26 22 18 16 14 11 15 20 17 18 31 37 45
17 19 19 16 14 17 18 17 15 13 15 23 27 29 35 40 41 39 39 43 42 37 36 33 29 22 22 25 27 28 25 21 20 18 18 13 20 24 21 24 36 40 48
17 18 20 16 21 18 16 15 16 18 21 24 34 38 39 41 40 42 41 41 39 34 28 24 22 20 23 30 28 28 25 23 21 21 19 15 22 23 26 28 34 38 44
14 15 20 16 16 15 14 15 21 23 25 31 36 38 36 37 40 38 41 37 30 25 18 19 19 21 27 28 31 27 26 23 21 22 22 17 21 21 27 31 30 29 33
11 13 17 17 17 14 15 19 25 28 30 37 36 35 34 36 36 38 36 28 24 18 14 18 17 24 27 29 29 27 26 23 21 23 24 23 20 20 23 28 33 30 28
9 9 13 11 13 15 16 21 28 30 32 35 37 33 33 33 32 35 28 23 18 12 15 14 21 26 27 28 28 27 25 23 21 22 24 25 29 20 20 25 23 32 29
11 11 8 9 10 14 19 22 26 28 32 34 33 33 30 30 30 29 24 18 12 14 16 20 20 21 23 26 28 26 23 23 21 19 20 21 22 23 22 13 24 23 25
Wind_Direction
304 301 298 297 295 292 289 287 286 283 279 273 268 266 264 260 256 254 253 252 251 252 250 251 251 248 243 241 244 248 248 245 244 250 247 248 249 251 252 253 255 257 259
304 302 299 296 293 291 289 284 280 278 276 271 271 272 272 270 266 260 256 253 249 248 247 247 246 247 247 240 242 244 246 246 244 247 248 247 249 251 252 253 254 255 257
304 301 299 296 294 290 285 280 277 275 271 269 271 274 275 273 269 267 261 256 252 248 246 246 244 245 243 244 241 244 242 246 244 245 248 247 248 250 253 255 254 254 257
305 303 299 295 290 287 284 283 280 276 271 266 266 267 268 265 264 263 266 259 254 249 247 245 243 243 242 245 243 240 239 242 244 242 246 247 247 249 254 255 255 257 258
310 306 301 296 291 287 282 277 275 271 269 265 262 262 261 259 260 269 268 257 259 254 253 249 245 241 239 241 242 239 238 239 242 241 244 246 247 248 251 254 256 258 260
317 312 306 300 294 288 283 278 273 271 269 265 262 260 254 254 265 271 260 254 259 254 250 247 242 243 236 238 242 242 241 234 241 241 240 243 246 247 249 253 256 258 262
326 322 315 307 298 293 285 280 274 271 268 265 259 258 249 250 258 264 258 252 255 252 246 241 240 237 237 212 210 225 235 233 235 237 236 239 243 246 248 251 255 259 263
324 326 319 314 304 296 284 279 279 275 266 262 257 254 246 246 257 273 258 251 251 244 243 234 227 212 206 205 221 223 227 229 233 231 232 235 240 245 247 250 255 260 268
321 321 322 316 309 301 289 277 279 276 269 262 254 249 242 242 256 274 263 251 248 244 248 233 218 200 197 200 207 213 224 230 226 226 228 231 238 242 246 251 258 265 273
318 318 317 320 311 301 295 284 278 271 265 258 248 243 238 243 261 271 258 253 249 253 248 238 215 197 197 210 208 217 216 211 213 217 223 229 235 240 247 256 266 270 275
316 316 316 317 316 306 298 292 277 269 264 256 240 234 242 253 254 250 251 259 254 242 240 225 189 182 185 195 198 206 196 198 205 212 221 227 232 243 256 264 270 276 279
315 316 317 317 319 311 299 290 279 270 265 241 215 222 242 257 253 257 256 264 266 251 209 211 189 175 171 166 175 182 180 192 199 208 215 224 238 252 261 270 278 285 288
321 316 319 320 323 319 301 285 277 275 232 203 213 225 243 249 262 250 251 229 197 200 182 185 167 153 161 168 169 170 179 189 196 204 216 229 243 256 266 281 289 295 295
323 320 323 323 329 329 313 292 271 198 182 192 210 226 242 222 216 225 190 173 175 162 173 169 170 169 171 164 161 175 179 187 196 205 217 229 243 256 279 290 300 301 303
322 323 325 328 338 344 329 238 163 165 164 183 205 180 105 155 172 166 139 136 141 148 153 167 170 167 163 166 170 176 182 186 190 202 216 223 232 272 289 303 308 309 307
326 328 335 334 346 5 76 144 149 136 142 129 109 119 137 148 154 155 144 147 156 168 165 163 164 163 168 170 172 171 175 181 191 198 202 202 244 287 311 319 318 322 336
333 336 332 346 9 31 119 116 121 116 118 105 108 128 146 155 149 156 156 158 169 163 160 164 171 168 169 161 163 166 173 186 182 185 174 173 217 41 43 339 350 23 64
4 0 357 43 83 95 96 101 96 107 102 109 122 145 146 140 148 154 156 153 154 156 162 165 164 159 153 156 161 173 178 171 170 161 152 116 69 129 109 41 44 83 93
30 48 61 61 65 64 63 90 115 117 137 143 136 144 138 142 146 154 154 152 152 158 157 154 150 151 149 157 168 163 164 160 154 142 114 82 108 139 126 75 84 87 99
59 65 63 60 48 46 84 119 132 140 142 135 145 142 137 139 145 153 152 150 151 150 154 146 139 142 151 161 158 159 150 147 131 111 94 81 138 144 129 97 103 89 91
53 56 53 42 38 82 112 121 126 134 128 135 139 138 143 144 144 140 144 143 143 141 132 135 141 142 155 159 153 144 141 132 113 102 84 95 149 147 133 119 120 118 115
52 46 33 45 88 106 111 105 113 116 131 144 144 144 143 141 139 141 139 136 128 132 134 137 139 141 155 149 142 137 133 123 114 101 83 115 152 148 137 136 129 126 134
53 40 53 77 84 93 95 112 125 133 140 144 139 139 138 136 140 140 132 130 132 129 127 140 140 143 150 143 139 135 129 121 114 105 87 113 153 150 141 144 150 142 132
42 34 77 72 70 85 95 110 124 132 140 143 138 132 131 136 139 139 131 129 132 120 113 135 137 143 146 141 141 135 130 122 117 109 95 90 142 159 156 149 159 156 147
59 54 108 84 77 92 99 115 130 136 142 144 133 128 130 134 143 136 133 124 125 112 125 137 137 134 145 142 145 138 133 127 122 112 103 95 85 117 146 161 165 170 158
81 87 98 87 92 105 111 126 140 144 146 143 128 128 133 147 148 132 127 126 130 133 136 130 132 135 145 150 153 147 136 134 128 121 113 106 102 100 87 121 168 180 172